Find Starlink 11307

NORAD ID: 61210 Int'l Des: 2024-171 Owner: SPXS Country: US Constellation: starlink operational
LEOCIRCULAR

Live Position

Loading 3D Globe...

About Starlink 11307

Description loading...

Upcoming Passes

Passes for default location (London). Set your location on the main map for personalized predictions.

Altitude History

Loading altitude history...

Two-Line Element Set

1 61210U 24171L 26125.73617860 .00005047 00000-0 46474-4 0 9994
2 61210 53.1595 255.3972 0001266 76.1879 283.9279 15.69719341 93352
Epoch: May 5, 2026 • Age: 10 hours

Current Status

Altitude 374.9 km
Velocity 7.68 km/s
Sub-Earth Point -43.13°S, 164.18°W
Launch Date Sep 20, 2024
Age 1.6 years
Type internet

Technical Details

Classification Payload
Mass 960.00 kg
Dry Mass 910.00 kg
Total Mass 960.00 kg
Length 0.30 m
Diameter 4.10 m
Span 29.00 m
Shape Box + pan
Manufacturer SPXS
Bus Type Starlink V2MD
Phase Status In Orbit
Owner/State SPXS/US

Most Searched